Flag for China Weather past 2 weeks in Langfang, Hebei, China

Now
91 °F

Clear.


Feels Like: 90 °F
Forecast: 71 / 93 °F
Wind: 13 mph from Southwest

Location: Beijing Airport

Current Time: May 26, 2015 at 12:46:05 PM

Latest Report: May 26, 2015 at 12:00 PM


Visibility: 5 mi

Pressure: 29.68 "Hg

Humidity: 32%

Dew point: 57 °F

Location of LangfangLocation

Historic Weather in Langfang — Graph

°F

Langfang temperature yesterday

Maximum temperature yesterday: 93 °F (at 1:30 PM)
Minimum temperature yesterday: 66 °F (at 5:30 AM)
Average temperature yesterday: 82 °F

Past Weeks' High & Low Weather Summary

 TemperatureHumidityPressure
High93 °F (May 25, 1:30 PM)100% (May 18, 3:30 AM)30.07 "Hg (May 18, 3:30 AM)
Low50 °F (May 13, 3:00 AM)8% (May 18, 11:30 PM)29.30 "Hg (May 12, 3:30 PM)
Average73 °F42%29.70 "Hg
* Reported May 11 11:00 AM — May 26 11:30 AM, Langfang, Weather by CustomWeather, © 2015

Note: Actual official high and low records may vary slightly from our data, if they occured in-between our weather recording intervals... More about our weather records

Advertising

Langfang weather history for previous 24 hours

 ConditionsComfort  
Time TempWeatherWind HumidityBarometerVisibility
11:30 AM
Tue, May 26
90 °FClear.8 mph33%29.71 "Hg5 mi
11:00 AM90 °FClear.8 mph38%29.71 "Hg5 mi
10:30 AM86 °FClear.3 mph43%29.74 "Hg5 mi
10:00 AM84 °FClear.3 mph45%29.74 "Hg5 mi
9:30 AM82 °FClear.1 mph48%29.74 "Hg5 mi
9:00 AM81 °FClear.3 mph48%29.74 "Hg5 mi
8:30 AM79 °FClear.3 mph51%29.74 "Hg4 mi
8:00 AM77 °FClear.3 mph54%29.74 "Hg4 mi
7:30 AM75 °FClear.1 mph57%29.74 "Hg4 mi
7:00 AM73 °FClear.3 mph57%29.74 "Hg4 mi
6:30 AM72 °FClear.1 mph65%29.74 "Hg4 mi
6:00 AM72 °FClear.1 mph61%29.74 "Hg5 mi
5:30 AM72 °FClear.3 mph61%29.74 "Hg5 mi
4:30 AM70 °FPassing clouds.3 mph64%29.71 "HgN/A
4:00 AM72 °FClear.3 mph61%29.71 "Hg10 mi
3:30 AM72 °FClear.3 mph65%29.71 "Hg10 mi
3:00 AM73 °FClear.3 mph57%29.71 "Hg10 mi
2:30 AM75 °FClear.6 mph54%29.71 "Hg10 mi
2:00 AM75 °FClear.6 mph54%29.71 "Hg10 mi
1:30 AM75 °FClear.6 mph54%29.71 "Hg10 mi
1:00 AM75 °FClear.3 mph54%29.71 "Hg10 mi
12:30 AM79 °FPassing clouds.6 mph48%29.71 "HgN/A
12:00 AM79 °FPassing clouds.6 mph48%29.71 "HgN/A
11:30 PM
Mon, May 25
81 °FClear.8 mph45%29.71 "Hg10 mi
11:00 PM81 °FClear.6 mph45%29.71 "Hg10 mi
10:30 PM79 °FClear.6 mph48%29.71 "Hg10 mi
10:00 PM82 °FClear.6 mph42%29.71 "Hg10 mi
9:30 PM84 °FClear.8 mph37%29.68 "Hg10 mi
9:00 PM82 °FClear.8 mph40%29.68 "Hg10 mi
8:30 PM84 °FClear.8 mph37%29.68 "Hg10 mi
8:00 PM86 °FClear.8 mph35%29.65 "Hg10 mi
7:30 PM86 °FSunny.8 mph35%29.65 "Hg10 mi
7:00 PM88 °FSunny.13 mph31%29.65 "Hg10 mi
6:30 PM90 °FSunny.10 mph31%29.65 "Hg10 mi
6:00 PM90 °FSunny.13 mph31%29.65 "Hg10 mi
5:30 PM91 °FSunny.15 mph30%29.62 "Hg10 mi
5:00 PM91 °FSunny.15 mph32%29.62 "Hg10 mi
4:30 PM91 °FSunny.17 mph30%29.65 "Hg10 mi
4:00 PM93 °FSunny.13 mph28%29.65 "Hg10 mi
3:30 PM93 °FPassing clouds.13 mph26%29.65 "HgN/A
3:00 PM93 °FPassing clouds.15 mph26%29.65 "HgN/A
2:30 PM93 °FPassing clouds.10 mph26%29.65 "HgN/A
2:00 PM93 °FClear.10 mph28%29.65 "Hg5 mi
1:30 PM93 °FClear.10 mph28%29.68 "Hg5 mi
1:00 PM91 °FClear.8 mph28%29.68 "Hg4 mi
12:30 PM91 °FClear.8 mph30%29.68 "Hg4 mi
12:00 PM90 °FHaze.6 mph31%29.71 "Hg3 mi
Weather by CustomWeather, © 2015

See weather overviewHow to use our weather pages